Regional Weather Roundup
Issued by NWS Goodland, KS

Home | Current Version | Previous Version | Text Only | Print | Product List | Glossary Off
Versions: 1 2 3 4 5 6 7 8 9 10 11 12 13 14 15 16 17 18 19 20 21 22 23 24 25 26 27 28 29 30 31 32 33 34 35 36 37 38 39 40 41 42 43 44 45 46 47 48 49 50

541
ASUS43 KGLD 271559
RWRGLD

GOODLAND FORECAST AREA HOURLY WEATHER ROUNDUP
NATIONAL WEATHER SERVICE GOODLAND KS
1000 AM MDT MON MAR 27 2017

...OFFICIAL OBSERVATIONS...

CITY           SKY/WX    TMP DP  RH WIND       PRES   REMARKS
GOODLAND KS    SUNNY     51  42  71 W5        29.96S
HILL CITY KS   FOG       44  44 100 CALM      29.99S VSB 1/2
IMPERIAL NEB   SUNNY     49  40  71 CALM      29.95S
MCCOOK NEB     SUNNY     49  42  77 VRB5      29.97R
AKRON CO       SUNNY     52  36  54 S5        29.94S
BURLINGTON CO  SUNNY     50  43  77 SW5       29.97R
LIMON CO       SUNNY     51  38  60 S6        29.96S
$$

...UNOFFICIAL OBSERVATIONS...

CITY           SKY/WX    TMP DP  RH WIND       PRES   REMARKS
LENORA KS        N/A     46  32  58 CALM        N/A
NORTON KS      FOG       39  37  93 CALM      29.98S VSB 0
SHARON SPRINGS   N/A     51  49  95 CALM        N/A
TRENTON NEB      N/A     50  32  50 CALM        N/A
KIT CARSON CO    N/A     47  42  83 CALM        N/A
YUMA CO        FAIR      46  37  71 SW3       29.94F
$$




USA.gov is the U.S. government's official web portal to all federal, state and local government web resources and services.